sat.trackr.live / text

‹ back to catalog

LUR-1

NORAD 60506 · 2024-149AQ

PAYLOAD ACTIVE UNKNOWN

§ Identity

Operator
Country
SPN
Launch date
2024-08-16
Launch site
AFWTR
Launch vehicle
Mass (kg)
RCS (m²)

External: N2YO · Heavens-Above · Gunter

§ Orbital elements

Epoch: 2026-05-25T05:18:54.722016Z

Period
94.13 min
Inclination
97.3738°
Eccentricity
0.0004893
Mean motion
15.29756843 rev/d
Perigee alt
473.2 km
Apogee alt
479.9 km
Semi-major
6,854.7 km
B*
2.3878e-4
RAAN
224.2216°
Arg perigee
45.9365°
Mean anomaly
314.2278°
Rev number
9,846

§ Raw data

LUR-11 60506U 24149AQ  26145.22146669  .00006809  00000+0  23878-3 0  99942 60506  97.3738 224.2216 0004893  45.9365 314.2278 15.29756843 98465

JSON: /api/v1/satellites/60506 · /tle

For live sub-satellite position, see the globe view (requires WebGL).

§ Visibility from observer

Set your observer location to see the next 7 days of passes ≥ 10°. The values pass through the URL so the page stays shareable.

No JS? Fill the form by hand. The geolocation button needs JavaScript.

§ Radio — SatNOGS DB

ModeDescriptionDownlinkUplink
FM S-band telemetry 2.217 GHz
FSK AX.100 Mode 5 Telemetry 401.700 MHz

2 transmitters · refreshed weekly from db.satnogs.org